Printer-friendly version
Follow the MPC on Twitter Follow the MPC on Facebook The MPC blog
Minor Planet Center

MPEC 2005-E82 : 2005 EY169

The following Minor Planet Electronic Circular may be linked-to from your own Web pages, but must not otherwise be redistributed electronically.

A form allowing access to any MPEC is at the bottom of this page.


Read MPEC 2005-E81 Read MPEC 2005-E83


M.P.E.C. 2005-E82                                Issued 2005 Mar. 14, 12:05 UT

     The Minor Planet Electronic Circulars contain information on unusual
         minor planets and routine data on comets.  They are published
   on behalf of Commission 20 of the International Astronomical Union by the
          Minor Planet Center, Smithsonian Astrophysical Observatory,
                          Cambridge, MA 02138, U.S.A.

                  Supported in part by the Brinson Foundation
             Prepared using the Tamkin Foundation Computer Network

                              MPC@CFA.HARVARD.EDU
          URL http://cfa-www.harvard.edu/iau/mpc.html  ISSN 1523-6714

                                  2005 EY169

Observations:
     K05EG9Y* C2005 03 13.21041 08 10 41.60 +15 55 32.2          18.3 R EE082G96
     K05EG9Y  C2005 03 13.21700 08 10 38.97 +15 54 17.6          18.3 R EE082G96
     K05EG9Y  C2005 03 13.22357 08 10 36.36 +15 53 03.2          18.4 R EE082G96
     K05EG9Y  C2005 03 13.23019 08 10 33.72 +15 51 48.3          18.2 R EE082G96
     K05EG9Y  C2005 03 13.23650 08 10 31.21 +15 50 36.7          17.9 R EE082G96
     K05EG9Y  C2005 03 13.24368 08 10 28.37 +15 49 15.5          18.4 R EE082G96
     K05EG9Y  C2005 03 13.25094 08 10 25.51 +15 47 53.3          18.4 R EE082G96
     K05EG9Y  C2005 03 13.25813 08 10 22.67 +15 46 31.6          18.1 R EE082G96
     K05EG9Y  C2005 03 13.26670 08 10 19.29 +15 44 54.3          18.4 R EE082G96
     K05EG9Y  C2005 03 13.27438 08 10 16.29 +15 43 27.0          18.4 R EE082G96
     K05EG9Y  C2005 03 13.28203 08 10 13.30 +15 42 00.2          18.6 R EE082G96
     K05EG9Y  C2005 03 13.28965 08 10 10.31 +15 40 33.3          18.2 R EE082G96
     K05EG9Y  C2005 03 13.80597 08 07 06.42 +14 02 57.4          19.1 V EE082240
     K05EG9Y  C2005 03 13.80802 08 07 05.63 +14 02 33.8          19.0 V EE082240
     K05EG9Y  C2005 03 13.81144 08 07 04.29 +14 01 54.0          18.6 V EE082240
     K05EG9Y  C2005 03 13.81553 08 07 02.75 +14 01 08.6          19.2 V EE082240
     K05EG9Y  C2005 03 13.81895 08 07 01.53 +14 00 30.9          19.5 V EE082240
     K05EG9Y  C2005 03 13.82304 08 06 59.97 +13 59 44.6          18.7 V EE082240
     K05EG9Y  C2005 03 13.83151 08 06 56.64 +13 58 08.6          19.1 V EE082198
     K05EG9Y  C2005 03 13.83242 08 06 56.29 +13 57 57.9          19.2 V EE082198
     K05EG9Y  C2005 03 13.83425 08 06 55.58 +13 57 37.4          19.1 V EE082198
     K05EG9Y  C2005 03 13.83699 08 06 54.54 +13 57 06.6          19.1 V EE082198
     K05EG9Y  C2005 03 13.83791 08 06 54.20 +13 56 56.3          19.2 V EE082198
     K05EG9Y  C2005 03 13.83882 08 06 53.86 +13 56 46.1          19.2 V EE082198
     K05EG9Y  C2005 03 14.25995 08 04 21.48 +12 37 30.4          19.3 R EE082854
     K05EG9Y  C2005 03 14.26356 08 04 20.04 +12 36 49.4          19.5 R EE082854
     K05EG9Y  C2005 03 14.26718 08 04 18.70 +12 36 08.3          19.4 R EE082854
     K05EG9Y 2C2005 03 14.32601 08 03 56.78 +12 24 56.1          18.7 R EE082H06

Observer details:
198 Wildberg.  Observer R. Apitzsch.  0.35-m f/4.2 reflector + CCD.
240 Herrenberg.  Observer H. Michels.  0.40-m f/5 reflector + CCD.
854 Sabino Canyon Observatory, Tucson.  Observer J. E. McGaha.  0.36-m f/10.0
    Schmidt-Cassegrain + CCD.
G96 Mt. Lemmon Survey.  Observer E. J. Christensen.  Measurers E. C. Beshore,
    C. M. Casey, E. J. Christensen, G. J. Garradd, R. E. Hill, S. M. Larson,
    R. H. McNaught.  1.5-m reflector + CCD.
H06 New Mexico Skies Observatory.  Observer R. Hutsebaut.  0.25-m reflector
    + CCD.

Orbital elements:
2005 EY169
Epoch 2005 Mar. 11.0 TT = JDT 2453440.5                 MPC
M 329.19847              (2000.0)            P               Q
n   0.66104257     Peri.  227.52223     -0.81279290     +0.57703229
a   1.3051180      Node   347.02457     -0.37246070     -0.62034579
e   0.2313807      Incl.   20.87526     -0.44792938     -0.53122956
P   1.49           H   21.9           G   0.15
From 28 observations 2005 Mar. 13-14.

Ephemeris:
2005 EY169               a,e,i = 1.31, 0.23, 21                  q = 1.0031
Date    TT    R. A. (2000) Decl.     Delta      r     Elong.  Phase     V
2005 03 11    08 24.96   +22 44.6    0.110    1.071   132.6    43.1    18.9
2005 03 21    07 30.43   -07 24.1    0.118    1.046   112.1    61.9    19.6
2005 03 31    06 56.27   -28 07.8    0.154    1.027    96.0    75.4    20.5
2005 04 10    06 33.58   -39 55.5    0.200    1.012    87.3    81.3    21.3
2005 04 20    06 16.55   -47 10.3    0.246    1.005    83.0    83.0    21.8
2005 04 30    06 01.75   -52 05.2    0.288    1.004    81.0    82.5    22.1
2005 05 10    05 47.97   -55 40.7    0.324    1.009    80.7    80.9    22.3
2005 05 20    05 34.69   -58 33.2    0.351    1.021    81.6    78.5    22.4
2005 05 30    05 21.45   -61 05.9    0.370    1.039    83.5    75.7    22.5
2005 06 09    05 07.75   -63 40.2    0.380    1.063    86.6    72.5    22.5
2005 06 19    04 51.42   -66 38.1    0.382    1.090    90.7    68.7    22.4
2005 06 29    04 27.29   -70 15.6    0.377    1.121    96.1    64.4    22.3
2005 07 09    03 41.53   -74 37.0    0.367    1.154   102.7    59.3    22.2
2005 07 19    01 54.03   -78 33.7    0.357    1.189   110.4    53.2    22.0
2005 07 29    22 53.23   -77 31.2    0.352    1.225   118.8    46.6    21.8
2005 08 08    21 04.08   -69 40.8    0.358    1.260   126.5    40.3    21.8
2005 08 18    20 23.62   -59 05.7    0.381    1.296   131.4    35.9    21.8
2005 08 28    20 10.15   -48 29.9    0.423    1.330   131.9    34.4    22.1

Timothy B. Spahr             (C) Copyright 2005 MPC           M.P.E.C. 2005-E82

Read MPEC 2005-E81 Read MPEC 2005-E83


MPEC number:

Enter an MPEC number in one of the following forms:

  • 1997-B01 (the full form)
  • J97B01 (the packed version of the full form)
  • B01 (the abbreviated form)

Valid HTML 4.01!